Wind_Speed
8 6 8 6 4 5 13 13 17 13 12 16 6 10 18 16 15 10 18 18 20 19 14 13 13 14 12 11 10 10 11 11 11 11 12 12 14 13 13 14 16 16 17 17 17 17 17 18 18
7 3 5 5 4 7 9 15 12 13 15 12 12 9 19 19 18 19 19 18 21 19 18 14 13 13 13 12 11 9 10 11 11 12 13 12 13 14 14 13 15 16 16 16 16 16 15 16 17
7 5 3 3 4 10 10 14 12 15 12 9 13 13 9 14 12 19 23 20 17 18 18 14 13 14 14 13 12 10 12 12 13 12 13 14 14 14 14 14 16 15 15 16 15 14 14 14 12
2 5 5 1 12 15 16 13 13 12 7 11 14 15 20 14 18 23 21 19 18 19 18 13 14 14 13 12 13 13 14 13 13 13 13 13 14 14 14 14 14 15 15 15 14 13 13 12 10
11 6 3 5 19 15 14 13 7 8 8 9 13 21 14 17 24 21 20 19 18 22 16 14 14 14 14 13 14 14 13 13 12 12 11 12 13 13 14 13 14 14 14 15 14 13 13 14 15
4 5 3 9 14 13 11 10 5 7 10 12 20 19 16 21 20 20 18 19 19 19 17 15 14 15 15 14 13 13 13 12 11 11 12 12 13 13 13 13 13 13 14 14 14 15 14 14 14
4 3 5 11 12 8 10 4 5 9 9 16 14 18 14 19 19 19 17 17 18 19 18 15 13 13 14 14 13 13 12 12 11 10 10 11 11 11 11 12 12 13 13 13 13 13 13 12 13
5 4 3 11 7 10 3 7 7 6 13 11 15 9 19 21 21 19 18 16 18 16 17 17 13 13 13 12 12 13 11 10 9 9 9 9 9 10 10 12 12 12 12 12 11 10 11 12 13
6 3 2 9 3 9 9 11 9 11 12 8 3 20 24 25 22 20 20 16 17 17 16 15 14 14 14 12 11 11 9 8 8 8 8 9 9 10 9 11 11 12 11 11 10 11 12 15 19
4 2 6 1 2 11 7 10 14 11 11 10 16 24 27 24 23 20 20 19 16 17 16 18 15 14 13 15 11 10 10 6 6 7 7 5 8 11 13 10 11 11 10 10 10 11 9 11 8
3 1 7 3 7 8 6 10 4 10 9 14 17 22 22 23 21 19 19 18 18 17 16 16 17 14 13 15 13 13 8 9 8 8 5 10 10 11 11 10 10 9 11 9 9 5 4 2 5
8 3 3 9 11 8 6 3 3 9 8 13 18 21 20 19 18 18 17 19 18 17 15 15 15 13 11 13 10 14 11 9 12 8 8 11 11 13 11 13 13 11 11 10 8 7 9 8 8
6 10 10 7 6 10 8 4 7 8 11 16 19 19 18 17 18 17 17 16 19 17 15 15 14 9 10 8 9 9 9 9 11 8 8 7 14 14 15 12 13 10 11 9 6 8 5 5 6
15 11 10 10 9 8 9 6 7 8 15 17 17 18 17 16 18 18 17 17 18 18 17 16 14 12 12 6 9 8 8 9 8 9 10 11 11 11 13 11 11 11 10 9 8 6 4 1 6
7 10 9 9 10 11 9 10 8 13 15 16 16 16 15 15 17 17 17 16 17 18 17 17 14 13 12 11 9 8 8 9 9 12 10 8 11 9 13 12 11 10 9 7 6 5 4 4 5
13 11 12 12 12 8 9 6 14 15 16 17 18 16 14 15 16 16 17 16 17 17 17 16 15 14 13 12 10 7 7 10 9 10 9 8 10 10 11 12 11 11 10 9 8 6 3 3 3
11 6 8 8 8 10 11 9 15 14 16 18 19 17 16 15 16 18 18 18 18 17 17 16 15 16 13 11 10 7 7 10 11 11 11 10 10 9 7 11 11 9 8 5 6 3 1 4 1
18 16 14 7 12 7 9 6 15 16 18 19 19 18 17 16 16 19 19 19 19 19 18 17 16 16 14 12 8 11 9 10 11 10 15 11 10 9 8 8 8 8 7 7 3 4 1 5 4
9 14 10 7 6 9 12 8 14 15 16 17 16 19 18 18 18 21 20 20 21 21 20 19 17 17 16 15 13 12 12 11 10 12 12 10 10 9 7 10 8 7 5 9 5 4 3 4 2
6 15 9 7 11 10 9 11 14 18 15 18 17 21 20 19 19 21 22 21 23 23 22 20 19 18 16 15 11 9 11 13 15 12 11 10 10 10 7 8 10 7 9 4 4 3 4 2 2
20 19 12 7 7 13 12 13 14 17 17 24 25 20 20 21 21 20 23 24 24 25 23 22 20 20 18 14 11 7 3 11 10 10 10 10 11 10 7 8 4 5 3 10 6 4 4 8 2
21 18 16 5 9 11 12 7 9 16 18 20 23 20 20 21 21 21 24 25 25 26 24 22 21 21 19 16 14 13 14 12 15 13 16 13 12 11 9 9 7 6 7 2 5 5 3 3 8
19 16 20 16 13 16 19 7 9 17 17 20 20 25 23 24 23 24 25 28 27 26 26 24 23 22 21 19 13 17 18 14 13 12 15 11 12 10 10 9 8 6 6 7 6 4 5 5 5
21 21 13 15 15 15 18 13 11 17 17 19 21 21 23 23 24 23 29 29 28 27 26 25 24 22 21 20 15 18 17 11 15 11 11 14 14 12 10 11 9 7 6 5 7 8 7 7 5
26 20 14 13 13 14 19 14 11 7 5 13 21 22 23 24 24 23 24 29 31 31 29 27 26 24 24 22 21 19 16 14 12 13 13 13 14 14 18 13 10 9 8 6 6 8 8 8 7
26 24 17 20 14 16 18 9 8 5 3 13 16 22 23 22 23 26 25 32 34 32 32 30 29 27 25 24 23 22 19 19 15 15 15 13 11 10 15 12 11 10 8 7 6 7 8 9 8
25 25 25 24 18 13 15 18 10 8 9 9 11 20 24 24 22 24 27 33 33 34 34 34 32 30 29 28 25 24 22 21 21 20 19 14 9 9 9 10 12 11 10 9 8 8 7 7 9
28 21 21 18 23 21 17 12 13 19 12 11 14 14 18 22 22 22 23 33 35 35 35 33 32 31 30 30 28 26 25 24 20 18 17 19 13 12 8 11 12 12 12 12 11 11 12 10 10
21 23 18 21 20 17 16 13 9 5 14 11 8 11 16 19 22 21 21 32 35 35 35 34 33 32 30 30 29 27 28 26 25 20 18 19 16 14 13 12 13 13 12 13 13 13 7 9 10
23 24 25 15 24 17 17 12 9 19 14 7 6 6 7 18 21 21 20 27 31 32 33 33 32 31 29 28 27 28 27 27 27 25 22 21 20 18 16 16 16 15 15 16 16 15 15 15 13
Wind_Direction
169 196 255 289 233 249 89 97 94 114 97 83 76 63 65 39 32 89 138 112 118 120 130 128 138 139 133 122 121 114 107 105 102 104 102 106 105 100 96 93 92 91 90 93 91 85 87 85 83
178 205 263 263 266 110 104 110 93 95 99 97 82 81 69 63 90 116 120 128 123 121 131 130 131 132 138 130 125 119 112 111 113 113 110 110 104 102 100 99 97 96 93 91 89 88 88 85 82
241 238 256 217 305 114 110 112 105 101 121 87 94 44 44 115 103 112 124 125 122 140 121 128 120 122 136 127 126 130 128 119 115 110 107 106 103 100 97 98 101 98 99 97 95 91 93 84 81
211 239 245 279 206 102 105 87 98 123 115 86 109 85 99 84 105 122 129 128 126 104 114 123 124 121 126 127 120 120 120 120 113 112 106 104 101 99 101 102 102 102 106 102 98 99 92 80 78
253 253 229 274 89 79 97 103 132 96 98 90 100 112 103 93 116 127 132 127 127 127 121 122 122 119 119 117 118 119 119 118 115 114 111 104 105 107 107 104 107 109 108 103 99 94 95 86 84
266 257 348 107 104 96 89 111 119 133 84 98 105 116 100 120 131 134 134 137 133 122 120 122 121 120 118 116 115 119 120 118 118 115 115 116 111 109 109 110 108 105 105 104 97 95 93 85 78
256 245 211 124 110 105 92 68 172 111 131 126 133 115 127 145 138 131 142 130 123 126 124 131 127 124 118 116 117 117 119 123 124 120 117 116 115 116 117 111 109 106 110 106 98 98 94 91 83
270 309 332 144 137 112 137 96 102 117 79 93 118 139 151 138 141 142 129 133 122 136 133 130 133 130 131 121 123 122 125 129 129 127 128 130 131 128 128 117 113 110 111 106 109 103 100 93 85
278 277 113 92 159 138 169 115 83 106 129 137 54 134 134 147 143 147 136 137 139 149 131 138 130 138 134 132 140 124 131 133 133 131 140 147 143 142 132 145 125 118 119 122 111 111 116 109 94
271 350 57 148 88 134 135 125 125 136 120 126 111 118 135 150 153 149 150 148 149 143 150 141 142 139 146 127 146 133 135 143 142 150 154 145 127 118 145 142 136 135 136 133 120 136 149 149 147
281 48 83 149 109 107 125 123 159 125 141 140 140 141 151 155 155 156 157 154 149 146 150 137 135 155 135 127 149 145 131 145 134 123 91 118 125 135 139 139 143 145 137 133 136 172 228 162 75
234 356 355 90 150 148 97 70 163 59 68 131 149 148 154 163 159 161 151 154 150 149 146 145 141 132 138 134 153 153 146 154 136 129 142 122 126 137 142 149 146 154 171 141 174 115 87 96 63
128 144 229 191 138 112 134 135 104 95 121 130 146 153 159 164 159 159 153 157 148 152 153 135 142 134 130 154 148 136 148 149 122 135 136 166 114 144 140 146 150 160 129 147 140 125 106 130 98
177 147 137 132 128 148 138 131 123 133 135 144 149 161 166 158 163 158 159 163 154 155 157 144 153 152 155 139 142 143 94 121 143 124 101 109 121 114 129 142 144 138 146 143 131 148 161 14 104
132 161 167 162 154 151 213 166 173 152 146 148 170 167 163 160 161 161 163 162 165 162 161 155 160 160 158 145 163 167 157 150 140 116 127 119 124 141 143 136 143 144 129 129 126 162 154 145 135
206 205 192 148 167 131 223 190 135 168 161 160 188 170 167 163 163 167 166 169 164 166 161 163 164 159 162 158 169 167 146 137 134 140 145 142 139 143 133 149 140 136 145 158 153 190 124 95 87
225 217 122 240 195 133 226 156 144 175 181 172 187 177 177 170 167 168 170 173 166 164 163 166 161 163 163 161 171 162 160 156 141 140 139 149 154 165 166 141 133 175 162 153 159 137 16 125 240
212 224 196 191 167 199 187 174 151 178 195 175 186 184 180 175 176 171 173 172 167 164 167 167 168 160 166 166 179 159 175 158 149 151 136 149 157 168 179 141 155 188 167 143 125 40 201 6 7
318 290 206 148 96 204 203 242 158 171 202 172 196 186 185 180 176 172 175 171 170 168 171 169 171 158 171 166 183 165 173 173 140 119 124 151 152 163 190 150 162 219 151 71 145 185 201 238 78
258 267 236 142 150 239 206 211 188 167 194 178 203 184 188 186 174 173 178 175 174 171 173 174 176 170 180 177 174 202 187 182 156 173 148 171 164 161 185 157 171 210 138 152 177 240 265 258 22
208 233 227 245 142 226 267 247 216 171 185 174 197 194 192 190 178 177 182 181 178 175 177 177 180 176 184 179 174 190 242 159 157 134 159 169 167 170 172 183 202 184 231 173 179 193 277 321 120
235 223 264 185 239 263 192 268 193 174 184 194 196 189 192 193 188 177 182 187 188 181 183 179 183 181 189 181 170 186 196 172 185 182 157 158 170 174 175 179 192 195 232 69 187 213 267 287 314
250 245 223 240 259 253 220 246 186 171 189 191 202 179 199 191 189 183 185 187 191 188 184 185 188 189 191 200 191 174 197 190 177 187 150 172 174 187 187 181 185 196 210 208 232 183 212 238 263
238 250 236 252 239 249 246 237 193 190 191 186 191 205 196 192 188 189 186 183 192 190 189 187 184 193 196 195 208 195 210 206 186 201 167 196 184 189 198 188 191 203 209 206 210 214 222 237 267
229 226 232 222 228 239 236 226 231 107 159 186 182 196 198 196 188 189 185 185 191 191 190 189 184 194 197 197 202 203 205 215 187 179 203 204 200 190 178 190 200 208 209 201 201 214 227 233 242
217 229 229 219 221 228 228 227 245 236 312 170 185 186 192 199 190 187 191 190 190 192 189 192 186 190 201 202 203 205 209 204 203 189 209 218 215 191 168 180 201 212 201 217 220 221 218 227 236
223 223 240 252 242 256 214 197 170 146 198 169 199 178 188 195 199 191 189 192 190 194 192 192 185 192 198 204 205 203 208 218 206 207 212 220 235 195 189 197 204 203 208 217 222 237 220 231 235
241 216 224 240 247 248 239 200 228 181 203 193 184 185 189 192 198 194 194 187 194 197 197 197 195 193 198 201 202 205 204 215 225 219 199 218 203 234 183 200 210 213 217 216 220 231 221 223 233
219 234 221 237 234 246 244 233 183 133 171 164 181 198 195 193 195 198 196 190 192 196 198 198 198 195 200 200 199 205 205 207 217 215 215 216 213 206 217 210 218 219 223 223 224 241 261 209 236
235 215 233 232 228 240 257 251 207 177 142 137 215 23 300 195 195 194 192 194 189 197 197 197 199 198 198 199 198 199 204 205 208 215 215 215 215 215 216 213 214 223 224 220 226 235 243 229 239
Height
769 769 766 765 778 755 756 755 736 751 748 739 742 751 761 765 770 801 791 795 800 807 812 815 818 820 822 823 824 826 827 828 828 829 830 830 831 833 834 834 834 835 835 837 837 837 837 837 838
768 769 768 763 778 769 761 737 751 746 742 743 747 751 762 782 773 783 792 799 802 808 813 817 819 821 823 825 827 828 829 830 830 831 832 832 833 835 836 837 838 838 839 839 839 840 840 841 841
769 769 770 766 760 759 764 747 746 744 744 748 755 755 764 784 779 785 796 800 806 809 813 818 821 822 824 826 828 829 831 831 832 834 835 835 835 837 838 839 840 841 842 842 842 843 843 843 843
770 766 758 771 771 737 744 743 745 749 747 747 753 779 776 782 786 794 799 802 806 811 816 820 822 824 826 829 830 832 833 834 835 836 837 838 838 839 840 841 843 844 844 844 846 845 845 845 845
769 757 770 773 751 744 741 744 748 755 757 756 756 783 787 786 792 797 800 803 807 814 819 823 824 827 828 830 832 833 835 836 837 838 839 840 841 842 843 844 845 846 847 847 848 849 848 847 848
770 750 782 774 765 752 750 745 752 751 753 759 770 779 788 792 795 798 801 803 805 812 820 825 827 828 830 832 834 836 837 838 839 841 842 843 844 845 846 846 847 848 849 850 851 852 851 851 850
771 766 773 759 763 770 754 743 752 752 756 762 764 785 790 793 797 799 802 804 808 813 820 826 829 831 833 834 836 838 839 840 841 842 844 845 846 847 848 849 850 851 852 852 853 853 853 853 853
757 761 779 758 772 771 756 748 745 751 761 756 761 786 793 792 797 801 804 808 811 814 819 824 829 832 834 837 838 839 840 842 843 844 845 846 847 849 850 851 852 853 855 855 855 855 855 855 855
753 777 781 761 765 760 748 753 750 753 762 761 763 771 781 793 798 802 806 811 813 816 819 823 829 832 834 837 840 840 842 843 844 846 846 846 848 850 851 853 853 855 856 856 857 857 857 856 855
759 768 756 752 745 751 746 752 758 761 768 770 769 776 787 793 797 801 805 811 813 816 820 821 828 831 832 835 839 841 843 844 845 846 846 847 848 849 852 854 855 856 857 858 859 857 857 856 855
756 759 749 745 743 747 750 754 747 759 767 768 779 781 788 792 795 800 803 809 812 817 818 821 826 830 830 835 838 840 842 844 846 847 846 847 848 850 852 855 857 858 858 860 860 858 857 855 855
765 753 744 744 744 750 761 758 760 760 767 762 773 781 786 790 793 797 801 807 812 817 820 822 827 830 833 835 835 839 839 842 843 847 848 849 849 851 853 854 857 859 858 860 859 858 860 860 860
760 754 747 752 747 751 758 765 770 772 765 770 775 782 786 788 793 797 802 807 811 817 822 824 830 832 834 836 837 838 839 839 844 846 848 849 850 852 853 855 856 856 859 861 860 862 862 861 860
744 739 740 741 753 755 761 768 769 772 768 774 780 781 783 786 791 797 802 806 811 817 821 826 831 835 836 837 839 839 840 842 845 846 848 850 852 853 855 856 857 859 860 862 862 863 862 859 859
733 748 742 743 751 756 752 770 774 770 770 779 784 780 781 786 791 797 803 807 811 816 820 826 831 835 837 839 840 840 841 842 843 847 851 852 854 855 856 857 858 860 862 863 864 864 862 860 860
744 742 760 746 746 749 758 797 766 767 772 784 780 779 782 786 791 797 802 807 812 815 820 826 828 833 837 838 840 840 840 841 843 848 851 853 855 856 856 856 859 862 863 862 862 861 860 860 861
749 767 769 791 742 750 757 786 766 767 769 783 775 778 781 785 790 796 801 806 811 816 821 825 827 831 835 839 839 840 842 841 843 846 850 854 855 857 856 856 859 861 860 861 860 861 861 863 861
759 749 773 750 744 750 760 761 757 761 764 773 770 775 778 782 787 794 799 804 810 816 821 824 827 831 835 838 839 838 840 841 842 844 847 853 855 857 856 857 860 860 860 860 860 863 863 862 862
736 733 737 736 738 752 753 751 755 753 759 769 770 772 774 777 783 791 797 802 808 814 819 823 826 831 834 836 837 837 839 840 843 845 848 852 854 856 856 858 861 859 859 862 864 865 865 862 862
747 742 740 744 738 747 739 747 737 742 751 763 770 766 769 772 778 787 793 799 805 811 817 822 825 830 833 835 835 836 838 840 842 846 848 851 853 856 856 857 859 858 860 864 865 865 862 862 863
741 741 737 744 743 738 742 750 738 733 742 750 756 758 761 766 771 781 790 796 801 808 814 819 824 829 830 832 834 837 837 839 840 844 847 851 853 855 856 858 859 860 860 862 864 865 864 862 863
745 721 727 748 748 760 730 767 740 733 743 744 743 754 758 760 766 775 785 792 797 804 811 817 822 826 829 831 833 836 837 836 839 841 843 849 852 854 855 858 859 861 861 860 863 864 865 865 862
736 718 727 730 742 740 742 753 727 726 743 741 740 744 750 750 759 767 777 787 793 799 807 813 819 824 827 829 831 835 835 835 837 838 843 846 850 852 853 856 858 860 861 861 862 863 864 864 865
722 728 729 740 738 760 735 735 726 721 723 725 730 733 736 742 750 760 772 781 789 795 802 809 816 821 824 828 829 832 832 832 835 838 843 846 847 850 852 854 856 858 859 860 862 863 863 864 863
728 739 763 772 765 765 720 732 721 710 709 707 718 725 729 732 741 753 764 772 782 787 795 803 810 817 821 825 828 830 832 833 835 839 841 841 842 843 847 853 855 856 858 859 860 861 862 862 862
730 731 749 780 765 749 717 745 724 697 694 695 700 712 722 727 731 743 754 764 773 781 788 795 803 811 817 821 824 828 830 832 833 837 837 840 838 842 845 849 852 855 856 858 859 859 859 860 860
727 738 717 732 721 732 714 710 700 699 703 698 702 705 714 721 724 733 744 756 767 775 781 786 794 804 810 815 820 824 828 829 831 833 836 839 839 840 845 848 850 852 854 856 857 858 858 858 859
716 710 744 731 761 761 725 725 723 707 710 703 705 706 707 713 720 726 735 747 759 768 776 783 789 797 803 808 815 820 823 827 830 831 833 834 837 840 842 846 848 850 851 853 855 855 855 856 857
722 723 719 720 727 746 749 726 686 699 696 704 701 699 701 706 712 719 727 736 750 760 768 775 782 790 797 802 808 814 819 823 828 829 831 834 835 838 841 843 846 847 849 851 852 853 852 853 854
704 717 717 734 746 725 724 721 670 678 689 697 699 701 696 696 703 713 721 730 741 751 761 768 776 783 791 798 803 808 814 817 821 824 827 831 833 835 838 840 842 844 845 847 848 849 849 849 850